Regional Weather Roundup
Issued by NWS Sioux Falls, SD

Home | Current Version | Previous Version | Text Only | Print | Product List | Glossary On
Versions: 1 2 3 4 5 6 7 8 9 10 11 12 13 14 15 16 17 18 19 20 21 22 23 24 25 26 27 28 29 30 31 32 33 34 35 36 37 38 39 40 41 42 43 44 45 46 47 48 49 50
913
ASUS43 KFSD 231902
RWRFSD

WEATHER ROUNDUP FOR SE SOUTH DAKOTA/SW MINNESOTA/NW IOWA
NATIONAL WEATHER SERVICE SIOUX FALLS SD
200 PM CDT SUN JUL 23 2017

NOTE: "FAIR" INDICATES FEW OR NO CLOUDS BELOW 12,000 FEET WITH NO
SIGNIFICANT WEATHER AND OR OBSTRUCTIONS TO VISIBILITY.


SDZ038>040-050-052>070-232000-
SOUTHEAST SOUTH DAKOTA

CITY           SKY/WX    TMP DP  RH WIND       PRES   REMARKS
BROOKINGS      PTSUNNY   74  59  59 N12G18    30.02F
CHAMBERLAIN    SUNNY     87  53  31 N8G16     30.03F
HURON          SUNNY     78  60  53 N10G18    30.03S
MADISON        FAIR      73  59  60 N15G22    30.03F
MITCHELL       SUNNY     80  59  48 N10G18    30.03F
SIOUX FALLS    MOSUNNY   79  61  53 N15       30.01S
WINNER         FAIR      88  51  28 N8        30.05F
YANKTON        SUNNY     83  59  44 N13       30.01F
$$

MNZ071-072-080-081-089-090-097-098-232000-
SOUTHWEST MINNESOTA

CITY           SKY/WX    TMP DP  RH WIND       PRES   REMARKS
FAIRMONT       PTSUNNY   74  60  61 NW15G25   29.98S
JACKSON        MOSUNNY   72  59  64 N8G20     30.00S
LUVERNE        MOSUNNY   77  54  44 N12G20    30.01F
MARSHALL       PTSUNNY   71  59  65 N12       30.01S
MONTEVIDEO     PTSUNNY   77  61  57 N12G18    30.01S
PIPESTONE      MOSUNNY   75  59  57 N8G16     30.02S
REDWOOD FALLS  PTSUNNY   74  57  55 N10G22    29.98F
WINDOM         SUNNY     72  57  60 NW13      30.01S
WORTHINGTON    MOSUNNY   75  60  59 N16       30.01F
$$

IAZ001>003-012>014-020>022-031-032-NEZ013-014-SDZ071-232000-
NORTHWEST IOWA

CITY           SKY/WX    TMP DP  RH WIND       PRES   REMARKS
CHEROKEE       SUNNY     80  60  51 N12       29.98F
DENISON        SUNNY     82  61  47 NW10      29.98F
ESTHERVILLE    MOSUNNY   75  61  61 N16G24    29.98S
ORANGE CITY    SUNNY     79  63  57 N10       30.00S
SHELDON        MOSUNNY   77  61  57 N12G20    29.99S
SIOUX CITY     SUNNY     85  60  42 N13       29.97F
SPENCER        SUNNY     80  59  48 N16G24    29.98F
STORM LAKE       N/A     79  59  50 N17       29.98F
$$

ABBREVIATIONS USED IN REMARKS
   TC - TEMPERATURE IN CELSIUS
  WCI - WIND CHILL INDEX
   HX - HEAT INDEX
  VSB - VISIBILITY





USA.gov is the U.S. government's official web portal to all federal, state and local government web resources and services.